Location: *
(51.2167°N, 10.0667°E)
Time: 04:13:34
(UTC+00:00)

Cosmos 1689 Rocket - Pass Details

Date: 12 December 2019
Orbit: 371 x 389 km, 97.5° (Epoch: 26 January)

Event Time Altitude Azimuth Distance (km) Brightness Sun altitude
Exits shadow 16:13:02 - 11° (N) 2,125 5.5 -9.0°
Reaches altitude 10° 16:14:38 10° 9° (N) 1,436 4.6 -9.2°
Maximum altitude 16:17:40 67° 286° (WNW) 428 2.5 -9.6°
Drops below altitude 10° 16:20:40 10° 203° (SSW) 1,414 5.7 -10.0°
Sets 16:22:37 0° 201° (SSW) 2,259 6.7 -10.3°
